Location: Peebles
(55.6412°N, 3.1714°W)
Time: 19:16:46
(UTC+00:00)

Daily predictions for brighter satellites

Satellite Brightness Start Highest point End
(mag) Time Altitude Azimuth Time Altitude Azimuth Time Altitude Azimuth
Cosmos 1825 2.7 18:00:55 10° SSW 18:04:40 63° WNW 18:08:27 10° N
H-2A R/B 3.2 18:01:21 10° SE 18:05:02 40° ENE 18:08:43 10° N
SeaSat 1 2.8 18:00:55 10° ESE 18:05:39 48° NE 18:10:24 10° NNW
Cosmos 1869 Rocket 3.5 18:01:21 10° S 18:05:40 73° E 18:10:01 10° NNE
USA 267 3.3 18:03:33 10° E 18:10:08 85° N 18:16:42 10° WNW
CENTAUR R/B 4.1 18:10:01 10° SE 18:13:07 14° ESE 18:16:23 10° ENE
Cosmos 1812 3.0 18:11:49 10° N 18:15:34 44° ENE 18:19:18 10° SE
Cosmos 2285 Rocket 4.3 18:11:03 10° S 18:17:02 46° ESE 18:23:07 10° NE
Cosmos 2221 Rocket 4.5 18:13:00 10° NNW 18:17:20 55° W 18:21:39 10° S
Cosmos 1378 Rocket 4.2 18:13:18 10° N 18:17:21 35° ENE 18:21:25 10° SE
Cosmos 1980 4.4 18:13:39 10° NW 18:19:15 59° WSW 18:24:50 10° SSE
CZ-2D R/B 4.3 18:16:19 10° ESE 18:19:37 27° ENE 18:22:56 10° N
H-2A R/B 4.1 18:21:17 10° NE 18:22:39 11° NE 18:24:02 10° NNE
Cosmos 44 Rocket 3.4 18:19:56 10° NW 18:24:56 89° SW 18:30:02 10° SE
Cosmos 2034 Rocket 4.4 18:19:44 10° N 18:25:46 42° ENE 18:31:46 10° SE
Cosmos 923 Rocket 4.3 18:21:05 10° SW 18:26:20 74° WNW 18:31:41 10° NNE
ERS-2 2.3 18:23:23 10° SE 18:26:59 53° ENE 18:30:37 10° N
COSMO-SKYMED 1 2.5 18:25:27 10° NNE 18:29:48 69° ESE 18:34:08 10° S
Cosmos 1633 3.7 18:29:53 10° SE 18:32:38 21° E 18:35:24 10° NE
USA 186 3.3 18:32:00 13° ESE 18:33:57 20° ENE 18:36:30 10° NNE
Cosmos 2082 Rocket 4.2 18:31:56 10° NW 18:35:44 18° N 18:39:32 10° NNE
HJ-1C 3.8 18:33:27 10° SE 18:36:42 42° ENE 18:39:59 10° N
Cosmos 1452 Rocket 3.5 18:31:59 10° NNW 18:37:19 89° WSW 18:42:35 10° SSE
Cosmos 2112 Rocket 4.2 18:32:14 10° SSW 18:37:36 84° WNW 18:43:01 10° NNE
ATLAS 3B R/B 2.8 18:32:01 10° SW 18:39:08 69° SE 18:45:58 10° NE
NOSS 3-2 (A) 3.8 18:34:18 10° SSW 18:40:06 48° SE 18:46:36 10° NE
FengYun 1-2 T 4.2 18:34:44 10° SSE 18:40:14 79° ENE 18:45:46 10° NNW
SPOT 3 Rocket 3.9 18:36:24 10° S 18:41:36 74° WSW 18:46:52 10° NNW
EO 1 Del DPAF 3.5 18:38:44 10° NNE 18:42:29 46° E 18:46:10 10° S
CZ-4C R/B 3.0 18:36:37 10° WNW 18:42:55 53° NNE 18:49:00 15° E
MTI 3.7 18:39:54 10° NNE 18:43:06 66° ESE 18:46:16 10° S
Cosmos 1437 Rocket 4.5 18:41:56 10° SE 18:46:21 13° NE 18:47:11 10° NE
Cosmos 2123 Rocket 4.3 18:38:53 10° SSW 18:45:03 70° WNW 18:51:15 10° N
Cosmos 1939 Rocket 3.9 18:43:45 13° ESE 18:46:36 27° ENE 18:50:04 10° N
Cosmos 1943 3.8 18:44:44 10° NNW 18:49:59 38° NE 18:53:50 17° E
ATLAS CENTAUR R/B 2.2 18:46:55 10° NW 18:50:33 34° NNE 18:52:53 19° E
Spot 2 Rocket 4.2 18:46:29 10° ESE 18:50:54 33° ENE 18:55:26 10° N
Iridium 4 Rocket 3.5 18:47:02 10° N 18:52:10 55° E 18:56:49 10° SSE
USA 238 DEB 3.7 18:49:00 10° SW 18:55:54 81° SE 19:02:58 10° NE
USA 238 3.7 18:49:06 10° SW 18:56:01 80° SE 19:03:04 10° NE
Cosmos 1674 Rocket 3.7 18:51:39 10° NNW 18:56:02 76° W 19:00:21 10° S
Cosmos 724 4.3 18:50:46 10° SW 18:56:37 83° NW 19:02:28 10° NE
Landsat 4 3.6 18:52:59 10° NNE 18:56:45 77° ESE 19:00:30 10° SSW
FREGAT/IRIS 2.7 18:55:40 10° S 18:58:37 78° WSW 19:01:38 10° NNW
Cosmos 1420 Rocket 4.2 18:53:52 10° NNW 18:59:09 76° WSW 19:04:27 10° SSE
ALOS 4.0 18:56:02 10° SSW 19:00:21 36° W 19:04:42 10° NNW
Cosmos 158 Rocket 4.5 18:56:19 10° SSE 19:00:36 32° ESE 19:04:56 10° NE
Cosmos 44 4.4 18:56:34 10° NW 19:01:17 47° SW 19:06:13 10° SSE
Cosmos 1513 Rocket 4.5 18:57:01 10° N 19:03:28 77° ENE 19:09:47 10° SSE
Cosmos 2237 Rocket 4.0 18:58:46 10° NW 19:03:45 33° WSW 19:08:42 10° S
SL-16 R/B 2.7 19:01:26 10° NW 19:07:04 62° WSW 19:12:38 10° SSE
Cosmos 1680 Rocket 4.5 19:03:06 10° SW 19:08:17 50° NW 19:13:29 10° NNE
Cosmos 2219 3.6 19:02:58 10° SW 19:08:35 67° NW 19:14:15 10° NNE
Cosmos 2227 Rocket 2.1 19:04:41 10° SSW 19:10:17 68° ESE 19:15:55 10° NE
Cosmos 1908 Rocket 3.7 19:06:24 10° S 19:10:43 49° E 19:15:03 10° NNE
Meteor 1-14 Rocket 4.3 19:06:54 10° S 19:12:39 64° E 19:18:32 10° NNE
Okean 3 4.0 19:09:53 10° NNW 19:14:02 61° W 19:18:08 10° S
Cosmos 921 Rocket 3.0 19:09:39 10° NNW 19:14:14 88° ENE 19:18:45 10° SSE
USA 215 4.1 19:12:19 22° E 19:15:16 30° SE 19:20:53 10° SSW
Cosmos 1733 Rocket 3.3 19:14:15 10° SSW 19:18:33 72° WNW 19:22:54 10° N
Cosmos 405 3.0 19:17:27 10° SSW 19:20:57 78° WNW 19:24:30 10° NNE
SJ-6B 2.9 19:17:16 10° S 19:21:04 74° WSW 19:24:59 10° NNW
Resurs 1-3 3.6 19:17:54 16° SE 19:21:19 57° ENE 19:25:39 10° N
DNEPR-1 R/B 3.6 19:17:58 10° SSW 19:22:05 57° SE 19:24:17 27° ENE
Cosmos 2297 Rocket 2.1 19:18:48 10° SSW 19:24:26 74° ESE 19:30:07 10° NE
Cosmos 1603 3.6 19:19:41 10° NNW 19:25:25 79° NE 19:29:32 19° SE
Thor Agena Rocket 3.6 19:21:43 10° NNE 19:26:42 49° E 19:31:37 10° S
Tsikada Rocket 4.2 19:20:55 10° SSE 19:26:59 47° E 19:33:06 10° NNE
Meteor 1-20 Rocket 4.2 19:21:19 10° S 19:27:00 69° E 19:32:48 10° NNE
Okean 1 3.4 19:23:27 10° NNW 19:27:29 80° W 19:31:28 10° S
Resurs 01 Rocket 1.5 19:26:33 17° SSE 19:29:53 68° ENE 19:34:19 10° NNW
Cosmos 1975 Rocket 2.9 19:25:40 10° N 19:30:07 80° ENE 19:34:35 10° SSE
NOSS 3-2 (C) 3.5 19:26:22 10° SW 19:32:27 68° SE 19:37:42 18° NE
ARGOS Delta rocket 3.8 19:31:34 10° NNE 19:36:35 59° E 19:41:17 10° S
Cosmos 2084 Rocket 3.2 19:32:40 10° SW 19:36:57 77° SE 19:38:17 42° ENE
Cosmos 1464 Rocket 4.4 19:30:55 10° NNW 19:36:58 63° W 19:43:00 10° S
Envisat 3.2 19:34:24 10° S 19:39:29 74° WSW 19:44:36 10° NNW
USA 32 3.9 19:37:00 10° S 19:42:14 80° E 19:47:30 10° N
SeaSat 1 3.6 19:38:34 10° S 19:43:16 43° WSW 19:47:59 10° NW
YAOGAN 6 2.4 19:44:42 58° SE 19:45:20 78° ENE 19:48:58 10° NNW
Cosmos 1269 Rocket 4.3 19:40:28 10° S 19:45:24 42° ESE 19:46:00 40° E
Cosmos 1110 Rocket 3.9 19:40:58 10° NNW 19:46:16 89° ENE 19:49:16 27° SSE
Meteor 1-19 Rocket 4.1 19:40:45 10° NNW 19:46:20 89° WSW 19:51:52 10° SSE
Meteor 1-25 Rocket 4.3 19:45:53 10° SSW 19:51:27 80° WNW 19:57:05 10° NNE
Cosmos 2082 3.7 19:46:12 10° SW 19:51:51 85° NW 19:57:34 10° NNE
USA 267 3.5 19:49:36 26° SE 19:53:24 61° SSW 19:59:54 10° WNW
CZ-2D R/B 4.5 19:50:08 10° S 19:53:51 42° W 19:57:37 10° NNW
Meteor 2-4 Rocket 3.7 19:48:40 10° NNW 19:54:36 79° ENE 19:58:16 24° SSE
Meteor 1-11 Rocket 3.9 19:55:00 44° ESE 19:55:25 44° E 20:00:50 10° NNE
MetOp-A 4.5 19:56:06 42° ENE 19:56:35 44° ENE 20:01:39 10° N
Cosmos 1536 Rocket 3.7 19:56:04 10° N 20:00:11 56° NE 20:00:11 56° NE
H-2A R/B 2.8 20:00:46 36° ENE 20:00:46 36° ENE 20:05:37 10° N
CENTAUR R/B 2.7 19:56:00 10° SSW 20:02:04 54° SE 20:04:36 36° ENE
Sich 1 Rocket 3.7 19:59:32 10° SSW 20:04:02 74° WNW 20:08:31 10° N
USA 186 2.9 20:03:33 34° SW 20:04:29 44° W 20:07:44 10° NNW
Cosmos 1633 3.8 20:03:58 10° SW 20:07:21 40° WNW 20:10:47 10° N
Cosmos 1782 Rocket 3.5 20:03:47 10° SSW 20:08:14 84° WNW 20:12:41 10° N
Cosmos 2279 Rocket 4.0 20:03:36 10° N 20:09:45 56° ENE 20:10:52 49° ESE
Cosmos 1184 Rocket 4.2 20:11:33 10° NNW 20:13:37 34° NNW 20:13:37 34° NNW
SJ-11-01 4.5 20:13:11 33° S 20:15:16 70° WSW 20:20:02 10° NNW
Cosmos 1437 Rocket 3.1 20:16:15 10° SSW 20:20:50 62° NNW 20:24:28 10° N
Cosmos 1331 Rocket 4.4 20:15:10 10° NNW 20:20:25 61° WSW 20:22:31 35° S
ARGOS 3.2 20:20:42 60° ENE 20:20:45 60° ENE 20:26:06 10° NNW
Cosmos 1939 Rocket 3.8 20:19:38 29° SSW 20:21:21 47° W 20:25:22 10° NNW
Cosmos 2082 Rocket 3.9 20:18:01 10° NNW 20:22:02 19° NNE 20:23:13 18° NNE
Okean 2 Rocket 4.4 20:24:22 29° NNE 20:24:22 29° NNE 20:26:37 10° NNE
Cosmos 1634 Rocket 4.0 20:19:57 10° NNW 20:26:11 81° W 20:29:23 30° S
COSMOS 2406 4.0 20:21:55 10° NNW 20:27:05 36° NE 20:27:05 36° NE
Spot 2 Rocket 4.2 20:26:40 23° SSW 20:29:42 52° W 20:34:41 10° NNW
ATLAS CENTAUR R/B 1.9 20:25:49 10° NW 20:29:08 56° W 20:29:08 56° W
ATLAS 3B R/B 3.2 20:23:13 10° W 20:30:10 55° NNW 20:33:55 27° NE
NOSS 3-2 (A) 3.9 20:24:35 10° WSW 20:30:51 66° NNW 20:34:32 29° NE
CZ-4C R/B 2.8 20:25:12 10° NW 20:32:00 78° SW 20:34:13 49° SSE
Cosmos 1048 Rocket 4.0 20:28:40 10° SSW 20:34:00 78° WNW 20:37:10 25° NNE
NOAA 11 4.3 20:32:27 46° S 20:34:03 72° WSW 20:39:32 10° NNW
Cosmos 1943 3.4 20:28:49 10° NW 20:34:25 64° WSW 20:35:41 50° S
ERS-1 Rocket 3.3 20:36:19 53° NNE 20:36:19 53° NNE 20:40:23 10° NNW
Cosmos 2346 Rocket 4.4 20:29:32 10° SSW 20:35:46 85° WNW 20:41:58 10° N
Meteor 1-23 Rocket 4.3 20:31:38 10° NNW 20:37:29 79° WSW 20:38:50 55° S
USA 238 DEB 4.3 20:40:37 10° W 20:47:23 52° NNW 20:50:32 32° NE
USA 238 4.3 20:40:42 10° W 20:47:29 52° NNW 20:50:37 32° NE
GEOS 3 Rocket 4.2 20:47:38 48° NNE 20:47:38 48° NNE 20:52:45 10° NW
Cosmos 1302 Rocket 4.3 20:43:17 10° NNW 20:48:26 61° WSW 20:48:39 60° WSW
Terra 3.8 20:53:21 20° NNE 20:53:21 20° NNE 20:55:05 10° N
MetOp-B 4.2 20:54:27 72° NNW 20:54:27 72° NNW 20:59:17 10° NNW
Cosmos 2227 Rocket 3.6 20:49:34 10° WSW 20:54:46 36° NW 20:59:34 12° NNE
SPOT 5 3.9 21:00:10 41° N 21:00:10 41° N 21:03:41 10° NNW
USA 215 3.2 20:59:40 65° S 20:59:40 65° S 21:05:37 10° SW
Resurs 01 Rocket 4.0 21:04:06 12° SW 21:06:50 20° W 21:10:08 10° NW
Cosmos 2297 Rocket 3.7 21:03:51 10° WSW 21:09:00 34° NW 21:13:17 14° NNE
NOSS 3-2 (C) 4.1 21:17:25 10° W 21:23:42 55° NNW 21:25:11 47° NNE
Cosmos 1833 Rocket 4.2 21:23:28 10° NNW 21:27:04 27° N 21:27:04 27° N
H-2A R/B 3.3 21:41:24 41° NW 21:41:24 41° NW 21:45:17 10° NNW
CENTAUR R/B 3.1 21:46:16 10° WSW 21:51:52 59° WNW 21:51:52 59° WNW
Cosmos 2082 Rocket 4.0 22:02:21 10° NNW 22:05:04 26° N 22:05:04 26° N
CZ-4C R/B 4.3 22:14:12 10° WNW 22:19:26 27° WSW 22:19:26 27° WSW
ATLAS 3B R/B 3.7 22:15:29 10° WNW 22:21:10 41° NNW 22:21:10 41° NNW
